This demonstration page uses our WeatherBlox Daily Observations layout. Learn more.

Left ArrowRight Arrow

Hourly Observations for January 2, 2016

Temp ( °F °C ) Dew Point ( °F °C ) Humidity (%) Winds ( mph kmh ) Pressure ( in mb ) Visibility ( mi km ) Precip ( " mm )
12:59 am 00:59 Partly Cloudy 44 6.7 31 -0.6 60 60 NW 10 17 30.14 1021 10 16 0.00 0.00
1:59 am 01:59 Partly Cloudy 44 6.7 36 2.2 73 73 NNW 9 15 30.14 1021 10 16 0.00 0.00
2:59 am 02:59 Partly Cloudy 44 6.7 32 0 63 63 NNE 8 13 30.15 1021 10 16 0.00 0.00
3:59 am 03:59 Partly Cloudy 43 6.1 32 0 65 65 N 9 15 30.15 1021 10 16 0.00 0.00
4:59 am 04:59 Partly Cloudy 42 5.6 30 -1.1 62 62 N 9 15 30.15 1021 10 16 0.00 0.00
5:59 am 05:59 Mostly Clear 41 5 28 -2.2 60 60 N 8 13 30.17 1022 10 16 0.00 0.00
6:59 am 06:59 Mostly Clear 39 3.9 29 -1.7 67 67 NW 7 11 30.18 1022 10 16 0.00 0.00
7:59 am 07:59 Mostly Sunny 41 5 28 -2.2 60 60 NW 7 11 30.20 1023 10 16 0.00 0.00
8:59 am 08:59 Mostly Sunny 44 6.7 27 -2.8 51 51 NW 9 15 30.22 1023 10 16 0.00 0.00
9:59 am 09:59 Sunny 46 7.8 28 -2.2 50 50 NW 9 15 30.23 1024 10 16 0.00 0.00
10:59 am 10:59 Sunny 45 7.2 27 -2.8 49 49 W 6 9 30.22 1023 10 16 0.00 0.00
11:59 am 11:59 Sunny 47 8.3 26 -3.3 44 44 WNW 8 13 30.18 1022 10 16 0.00 0.00
12:59 pm 12:59 Sunny 48 8.9 26 -3.3 42 42 W 8 13 30.15 1021 10 16 0.00 0.00
1:59 pm 13:59 Sunny 50 10 27 -2.8 41 41 WSW 9 15 30.11 1020 10 16 0.00 0.00
2:59 pm 14:59 Sunny 50 10 27 -2.8 41 41 SW 9 15 30.10 1019 10 16 0.00 0.00
3:59 pm 15:59 Mostly Sunny 50 10 27 -2.8 41 41 WSW 6 9 30.09 1019 10 16 0.00 0.00
4:59 pm 16:59 Mostly Sunny 48 8.9 27 -2.8 44 44 WSW 8 13 30.09 1019 10 16 0.00 0.00
5:59 pm 17:59 Clear 46 7.8 28 -2.2 50 50 SW 7 11 30.11 1020 10 16 0.00 0.00
6:59 pm 18:59 Clear 46 7.8 29 -1.7 51 51 SW 7 11 30.11 1020 10 16 0.00 0.00
7:59 pm 19:59 Clear 45 7.2 30 -1.1 56 56 SW 6 9 30.10 1019 10 16 0.00 0.00
8:59 pm 20:59 Clear 44 6.7 31 -0.6 60 60 SW 7 11 30.10 1019 10 16 0.00 0.00
9:59 pm 21:59 Clear 44 6.7 31 -0.6 60 60 SSW 9 15 30.09 1019 10 16 0.00 0.00
10:59 pm 22:59 Clear 43 6.1 31 -0.6 63 63 SSW 7 11 30.08 1019 10 16 0.00 0.00
11:59 pm 23:59 Clear 42 5.6 30 -1.1 62 62 SSW 7 11 30.06 1018 10 16 0.00 0.00

Powered by AerisWeather